Location: Cahas Mountain Overlook
(37.0833°N, 80.1000°W)
Time: 01:31:44
(UTC-05:00)

Vanguard 1 - Pass Details

Date: 07 October 2022
Orbit: 650 x 3831 km, 34.2° (Epoch: 03 December)

Event Time Altitude Azimuth Distance (km) Brightness Sun altitude
Rises 20:12:05 0° 281° (W) 5,242 15.6 -16.2°
Reaches altitude 10° 20:17:03 10° 268° (W) 3,647 14.3 -17.2°
Maximum altitude 20:23:06 21° 223° (SW) 2,216 12.3 -18.4°
Drops below altitude 10° 20:27:25 10° 174° (S) 2,487 12.0 -19.3°
Enters shadow 20:28:52 - 164° (SSE) 2,842 12.2 -19.6°
